Flag for U.S.A. Weather past 2 weeks in Lakeland, Florida, U.S.A.

Now
N/A

Partly cloudy.


Feels Like: N/A
Forecast: 72 / 84 °F
Wind: 5 mph from East

Location: Lakeland Regional

Current Time: Oct 1, 2014 at 12:57:17 AM

Latest Report: Oct 1, 2014 at 12:15 AM


Visibility: 7 mi

Pressure: 29.87 "Hg

Humidity: N/A

Dew point: N/A

Location of LakelandLocation

Historic Weather in Lakeland — Graph

°F

Lakeland temperature yesterday

Maximum temperature yesterday: 82 °F (at 9:45 AM)
Minimum temperature yesterday: 75 °F (at 5:45 AM)
Average temperature yesterday: 78 °F

Past Weeks' High & Low Weather Summary

 TemperatureHumidityPressure
High90 °F (Sep 18, 2:50 PM)100% (Sep 16, 4:15 AM)30.16 "Hg (Sep 16, 4:15 AM)
Low68 °F (Sep 25, 5:50 PM)46% (Sep 18, 2:50 PM)29.82 "Hg (Sep 30, 4:15 AM)
Average78 °F85%29.98 "Hg
* Reported Sep 15 11:15 PM — Sep 30 11:55 PM, Lakeland, Weather by CustomWeather, © 2014

Note: Actual official high and low records may vary slightly from our data, if they occured in-between our weather recording intervals... More about our weather records

Advertising

Lakeland weather history for previous 24 hours

 ConditionsComfort  
Time TempWeatherWind HumidityBarometerVisibility
11:55 PM
Sep 30
N/APassing clouds.No windN/A29.87 "Hg7 mi
11:35 PMN/APassing clouds.3 mphN/A29.87 "Hg7 mi
11:15 PMN/APassing clouds.No windN/A29.86 "Hg10 mi
10:55 PMN/AOvercast.3 mphN/A29.86 "Hg10 mi
10:15 PMN/APassing clouds.No windN/A29.87 "Hg10 mi
9:50 PM77 °FPassing clouds.No wind89%29.86 "Hg10 mi
8:50 PM77 °FPassing clouds.5 mph89%29.86 "Hg10 mi
7:54 PM75 °FLight rain. Broken clouds.No wind100%29.85 "Hg7 mi
6:51 PM81 °FBroken clouds.No wind94%29.83 "Hg15 mi
5:50 PM82 °FPartly sunny.3 mph84%29.82 "Hg10 mi
4:50 PM79 °FRain. Scattered clouds.6 mph100%29.82 "Hg5 mi
3:50 PM81 °FScattered clouds.5 mph100%29.82 "Hg15 mi
2:50 PM81 °FScattered showers. Scattered clouds.6 mph94%29.83 "Hg15 mi
1:52 PM79 °FScattered showers. Broken clouds.No wind100%29.85 "Hg12 mi
12:58 PM75 °FFog.16 mph100%29.87 "Hg2 mi
11:50 AM79 °FBroken clouds.5 mph100%29.87 "Hg10 mi
10:50 AM81 °FPartly sunny.7 mph84%29.88 "Hg10 mi
9:45 AM82 °FScattered clouds.No wind74%29.87 "Hg10 mi
8:50 AM75 °FFog.No wind89%29.86 "Hg3 mi
7:50 AM75 °FFog.No wind89%29.86 "Hg2 mi
6:50 AM75 °FFog.No wind89%29.84 "Hg4 mi
5:45 AM75 °FPassing clouds.No wind89%29.83 "Hg7 mi
5:15 AMN/APartly cloudy.No windN/A29.83 "Hg5 mi
4:55 AMN/APartly cloudy.No windN/A29.82 "Hg5 mi
4:35 AMN/APartly cloudy.No windN/A29.83 "Hg7 mi
4:15 AMN/APartly cloudy.No windN/A29.82 "Hg7 mi
3:55 AMN/APartly cloudy.3 mphN/A29.83 "Hg10 mi
3:35 AMN/AClear.3 mphN/A29.83 "Hg10 mi
3:15 AMN/APassing clouds.No windN/A29.83 "Hg7 mi
2:55 AMN/APartly cloudy.3 mphN/A29.84 "Hg7 mi
2:35 AMN/AMostly cloudy.3 mphN/A29.84 "Hg7 mi
2:15 AMN/ALow clouds.3 mphN/A29.84 "Hg4 mi
1:55 AMN/ALow clouds.No windN/A29.85 "Hg5 mi
1:35 AMN/ALow clouds.No windN/A29.84 "Hg4 mi
1:15 AMN/AFog.No windN/A29.84 "Hg1 mi
12:55 AMN/AFog.No windN/A29.86 "Hg1 mi
12:35 AMN/AFog.3 mphN/A29.86 "Hg0 mi
12:15 AMN/AFog.6 mphN/A29.87 "Hg0 mi
Weather by CustomWeather, © 2014

See weather overviewHow to use our weather pages